sat.trackr.live / text

‹ back to catalog

SHIYAN-6 03 (SY-6 03)

NORAD 48157 · 2021-028A

PAYLOAD ACTIVE UNKNOWN

§ Identity

Operator
Country
PRC
Launch date
2021-04-08
Launch site
TAISC
Launch vehicle
Mass (kg)
RCS (m²)

External: N2YO · Heavens-Above · Gunter

§ Orbital elements

Epoch: 2026-05-24T23:49:39.923616Z

Period
104.53 min
Inclination
99.5277°
Eccentricity
0.0046814
Mean motion
13.77599309 rev/d
Perigee alt
938.0 km
Apogee alt
1,006.8 km
Semi-major
7,350.6 km
B*
2.7886e-5
RAAN
158.8219°
Arg perigee
146.8857°
Mean anomaly
213.5238°
Rev number
25,631

§ Raw data

SHIYAN-6 03 (SY-6 03)1 48157U 21028A   26144.99282319 -.00000017  00000+0  27886-4 0  99912 48157  99.5277 158.8219 0046814 146.8857 213.5238 13.77599309256316

JSON: /api/v1/satellites/48157 · /tle

For live sub-satellite position, see the globe view (requires WebGL).

§ Visibility from observer

Set your observer location to see the next 7 days of passes ≥ 10°. The values pass through the URL so the page stays shareable.

No JS? Fill the form by hand. The geolocation button needs JavaScript.